sat.trackr.live / text

‹ back to catalog

STARLINK-6199

NORAD 56551 · 2023-065BA

PAYLOAD ACTIVE UNKNOWN

§ Identity

Operator
Country
US
Launch date
2023-05-14
Launch site
AFETR
Launch vehicle
Mass (kg)
RCS (m²)

Purposes: comms

External: N2YO · Heavens-Above · Gunter

§ Orbital elements

Epoch: 2026-09-20T13:21:17.325792Z

Period
94.27 min
Inclination
43.0029°
Eccentricity
0.0001173
Mean motion
15.27577183 rev/d
Perigee alt
482.3 km
Apogee alt
483.9 km
Semi-major
6,861.2 km
B*
-3.0540e-6
RAAN
203.1518°
Arg perigee
271.3158°
Mean anomaly
88.7559°
Rev number
18,627

§ Raw data

STARLINK-61991 56551U 23065BA  26263.55645053 -.00000346  00000+0 -30540-5 0  99912 56551  43.0029 203.1518 0001173 271.3158  88.7559 15.27577183186273

JSON: /api/v1/satellites/56551 · /tle

For live sub-satellite position, see the globe view (requires WebGL).

§ Visibility from observer

Set your observer location to see the next 7 days of passes ≥ 10°. The values pass through the URL so the page stays shareable.

No JS? Fill the form by hand. The geolocation button needs JavaScript.